Showing default

TIGRISAT, 40043

Orbit data source: Space-Track

TIGRISAT, 40043 is an Iraqi payload satellite in SSO that was launched on Thu, 19 Jun 2014 UTC via a DNEPR launch vehicle from the Orenburg, Russia (OREN). Payload-class satellites include a variety of spacecraft equipped with specific instruments for various scientific and technological missions. These include communications satellites like Starlink; space stations such as the ISS; scientific satellites like the Hubble; Earth observation satellites from companies like Planet Labs, Umbra, and HawkEye 360; GPS; miniature CubeSats for education and research; and military/defense satellites.

Loading next visibility...
Identifier
40043, 2014-033AK
Orbit
SSO
Country
Flag of IQIQ / IRAQ
Related business
Manufacturer
Roma La Sapienza
Mission
Operational Civil Technology
Bus & Motor
CUBESAT 3U, Unknown motor
Mass
3.6 kg wet, 3.6 kg dry
Launch date (UTC)
2014-06-19 (12 years ago)
Launch vehicle
DNEPR
Launch site
Orenburg, Russia (OREN)
Object type
Payload
Rocket body
Debris
Shape & HBR
Box, 0.1 m
Radar Cross Section
0.075 m², Small (<0.1 m²)

Expand to show TLE details & history
Last TLE update: 9 hours ago

TLE from 9 hours ago
0 TIGRISAT
1 40043U 14033AK  26111.85358625  .00001516  00000-0  18099-3 0  9998
2 40043  97.7758 263.1881 0048123 259.0317 100.5482 14.84916579637268
Epoch: 2026-04-21T20:29Z
TLE epoch observation values (Epoch: 2026-04-21T20:29:09.852Z)
Latitude
-0.00007°
Longitude
105.97366°
Altitude
623.197 km
Speed
7.544 km/s
True Right ascension
17h 32m 45s
True Declination
0° 00' 00"
Sunlit
Object was in full shadow at epoch
Visualization orbit readout
Latitude
Unknown
Longitude
Unknown
Altitude
Unknown
Speed
Unknown
Apparent Right ascension
Unknown
Apparent Declination
Unknown
Sunlit
N/A
Visualization observer readout
Local Sidereal Time
12:25:57
Azimuth
Unknown
Elevation
Unknown
Doppler factor
Unknown
Orbital elements
Apogee altitude
644.51 km
Perigee altitude
577.243 km
Semi-major axis
6,989.013 km
Eccentricity
0.00481
Inclination
97.7758°
RAAN
263.1881°
Arg. of periapsis
259.0317°
True anomaly
101.08973°
Mean anomaly
100.5482°
Eccentric anomaly
100.81902°
Mean motion
3.71466 °/min
Orbital period
96.91 mins
BSTAR
0.00018099
Loading maneuver chart data...
Computing Atmospheric mass density...
Loading historical data...
Loading historical data...
Loading historical data...
Loading historical data...
Loading historical data...
Loading historical data...
Loading historical data...

Documentation

Showing up to 5 results
|